Hourly Data Report for April 09, 2010

YELLOWKNIFE A
NORTHWEST TERRITORIES

62°27'46.000" N
114°26'25.000" W
205.70 m
2204100
71936
YZF

Download Data

Hourly Data (April 2010)
Hourly Data Report for April 9, 2010
TIME
LST
Temp Definition
°C
Dew Point Definition
°C
Rel Hum Definition
%
Precip. Amount Definition
mm

Wind Dir Definition
10's deg

Wind Spd Definition
km/h
Visibility Definition
km
Stn Press Definition
kPa
Hmdx Definition


Wind Chill Definition


Weather Definition


00:00 -0.8 -7.9 59   31 19 16.1 97.89   -6 Mostly Cloudy
01:00 -1.4 -7.5 63   32 19 2.4 97.94   -7 Snow
02:00 -1.1 -7.0 64   33 19 12.9 97.92   -6 Snow
03:00 -0.8 -6.6 65   32 11 4.0 97.94   -5 Snow,Ice Pellets
04:00 -0.7 -6.5 65   32 11 16.1 97.97   -4 Snow
05:00 -0.3 -6.1 65   33 11 16.1 98.05   -4 Snow
06:00 0.0 -6.0 64   2 19 24.1 98.09   -5 Snow
07:00 -2.0 -8.5 61   4 19 24.1 98.18   -8 Mostly Cloudy
08:00 -1.8 -8.3 61   5 19 24.1 98.24   -7 Cloudy
09:00 -2.0 -8.6 61   2 19 24.1 98.32   -8 Cloudy
10:00 -2.7 -10.3 56   4 19 24.1 98.37   -8 Mainly Clear
11:00 -1.9 -10.5 52   3 19 24.1 98.39   -7 Mostly Cloudy
12:00 -2.3 -11.3 50   2 22 24.1 98.46   -8 Mostly Cloudy
13:00 -2.0 -11.0 50   2 22 24.1 98.55   -8 Mostly Cloudy
14:00 -2.0 -11.2 49   2 28 24.1 98.61   -9 Mostly Cloudy
15:00 -2.2 -11.3 50   3 28 24.1 98.67   -9 Mostly Cloudy
16:00 -2.9 -11.3 52   2 32 24.1 98.80   -10 Cloudy
17:00 -3.4 -11.8 52   3 28 24.1 98.88   -11 Cloudy
18:00 -4.3 -12.7 52   2 19 24.1 98.99   -10 Cloudy
19:00 -4.7 -13.5 50   1 19 24.1 99.07   -11 Mostly Cloudy
20:00 -5.2 -13.7 51   36 28 24.1 99.16   -13 Mainly Clear
21:00 -6.7 -15.6 49   3 33 24.1 99.24   -16 Mainly Clear
22:00 -7.9 -16.6 50   2 30 24.1 99.30   -17 Mostly Cloudy
23:00 -9.0 -17.3 51   2 33 24.1 99.38   -19 Mostly Cloudy

Notes on Data Quality.

Legend

  • E = Estimated
  • M = Missing
  • NA = Not Available*
  • [empty] = Indicates an unobserved value
Date modified: